Weather Roundup
Issued by NWS

Home | Current Version | Previous Version | Graphics & Text | Print | Product List | Glossary Off
Versions: 1 2 3 4 5 6 7 8 9 10 11 12 13 14 15 16 17 18 19 20 21 22 23 24 25 26 27 28 29 30 31 32 33 34 35 36 37 38 39 40 41 42 43 44 45 46 47 48 49 50

000
NZUS93 KARX 231610
HRRWXR

CURRENT HOURLY OBSERVATIONS ACROSS
MUCH OF THE UPPER MISSISSIPPI VALLEY
NATIONAL WEATHER SERVICE LA CROSSE WI
1100 AM CDT THU OCT 23 2014


...SOUTHEAST MINNESOTA...


CITY           SKY/WX    TMP DP  RH WIND       PRES   REMARKS
ROCHESTER      CLOUDY    49  48  97 S9        30.04F FOG
ROCHESTER/MAYO CLOUDY    49  48  97 S3        30.03F
WINONA         CLOUDY    50  46  87 SE5       30.05F
AUSTIN         CLOUDY    50  48  93 S6        30.03F FOG
ALBERT LEA     CLOUDY    54  52  94 S6        30.02S FOG
DODGE CENTER   CLOUDY    52  50  93 S8        30.02F FOG
PRESTON        CLOUDY    47  46  95 S5        30.05S FOG
OWATONNA       CLOUDY    54  52  94 S6        30.02R FOG
FARIBAULT      CLOUDY    54  54 100 SW6       30.02R FOG
$$

...ELSEWHERE IN MINNESOTA...


CITY           SKY/WX    TMP DP  RH WIND       PRES   REMARKS
MINNEAPOLIS    CLOUDY    57  52  83 SW8       30.01R
INTNL FALLS    CLOUDY    54  49  83 S6        29.88F
DULUTH         FOG       49  47  93 SW9       29.96S VSB 1/2
RED WING       NOT AVBL
REDWOOD FALLS  SUNNY     57  49  74 MISG      30.01R
MANKATO        CLOUDY    55  48  76 W6        30.02S
WORTHINGTON    SUNNY     57  48  72 W9        30.04S
FAIRMONT       PTSUNNY   54  48  82 SW6       30.03S
$$

...SOUTHWEST WISCONSIN...


CITY           SKY/WX    TMP DP  RH WIND       PRES   REMARKS
LA CROSSE      LGT RAIN  49  47  93 S8        30.06S FOG
PRAIRIE DU CHI LGT RAIN  47  44  89 E7        30.08S
BOSCOBEL       LGT RAIN  48  44  86 CALM      30.10F FOG
LONE ROCK      LGT RAIN  49  42  77 E8        30.11F
PLATTEVILLE    CLOUDY    46  43  88 S8        30.12S
FORT MC COY    LGT RAIN  46  44  95 CALM      30.08S
CAMP DOUGLAS   LGT RAIN  46  46 100 S7        30.08S FOG
VIROQUA        CLOUDY    44  44 100 S6        30.06F
WIS DELLS      LGT RAIN  44  41  90 S6        30.11R
$$

...ELSEWHERE IN WISCONSIN...


CITY           SKY/WX    TMP DP  RH WIND       PRES   REMARKS
MILWAUKEE      PTSUNNY   54  42  64 S8        30.17F
MADISON        CLOUDY    50  40  68 S12       30.12F
GREEN BAY      CLOUDY    51  40  65 S10       30.13F
EAU CLAIRE     LGT RAIN  49  47  93 S7        30.03F
BLACK RVR FLS  RAIN      47  47 100 S5        30.06S
MEDFORD        DRIZZLE   42  42  97 S7        30.05F
WAUSAU         LGT RAIN  44  41  89 S10       30.07S
WIS RAPIDS     LGT RAIN  44  42  93 S7        30.10S FOG
MARSHFIELD     LGT RAIN  45  42  89 S8        30.06F FOG
RICE LAKE      FOG       48  47  95 SE6       30.03S VSB 3/4
$$

...NORTHEAST IOWA...


CITY           SKY/WX    TMP DP  RH WIND       PRES   REMARKS
DECORAH        CLOUDY    46  45  93 S8        30.05R
MASON CITY     CLOUDY    53  52  96 SW6       30.05S FOG
CHARLES CITY   FOG       48  48 100 VRB6      30.06R VSB 1
OELWEIN        CLOUDY    48  46  93 S12       30.07S
$$

...ELSEWHERE IN IOWA...


CITY           SKY/WX    TMP DP  RH WIND       PRES   REMARKS
DES MOINES     CLOUDY    59  56  89 SW8       30.05S
IOWA CITY      CLOUDY    50  47  89 SE7       30.10F
FORT DODGE     CLOUDY    61  55  82 NW5       30.05S
$$

...NORTHERN ILLINOIS...


CITY           SKY/WX    TMP DP  RH WIND       PRES   REMARKS
CHICAGO-OHARE  PTSUNNY   53  41  63 S10       30.20F
CHICAGO-MIDWAY PTSUNNY   56  43  61 SW12      30.20F
MOLINE         CLOUDY    56  44  64 SE9       30.11F
ROCKFORD       CLOUDY    53  41  63 S15       30.20F
PEORIA         CLOUDY    53  42  66 S12       30.19F
$$

NOTE: "FAIR" INDICATES FEW OR NO CLOUDS BELOW 12,000 FEET WITH NO
SIGNIFICANT WEATHER AND/OR OBSTRUCTIONS TO VISIBILITY. WIND
SPEEDS ARE IN MILES-PER-HOUR.



USA.gov is the U.S. government's official web portal to all federal, state and local government web resources and services.